Rochester, NY

4:20 AM EST on January 19, 2017 (GMT -0500)
Greater Rochester International

Weather History for KROC - February, 2012

Change the Weather History Date:

Saturday, February 25, 2012

  Actual Average Record
Temperature  
Mean Temperature 30 °F 28 °F  
Max Temperature 35 °F 36 °F 67 °F (1957)
Min Temperature 25 °F 20 °F -8 °F (1894)
Degree Days  
Heating Degree Days 35 37  
Month to date heating degree days 827 973  
Since 1 July heating degree days 3883 4677  
Cooling Degree Days 0 0  
Month to date cooling degree days 0 0  
Year to date cooling degree days 0 0  
Moisture  
Dew Point 23 °F    
Average Humidity 69    
Maximum Humidity 92    
Minimum Humidity 46    
Precipitation  
Precipitation 0.11 in 0.08 in 1.44 in (1961)
Month to date precipitation 1.96 1.72  
Year to date precipitation 5.28 4.13  
Snow  
Snow 3.80 in 0.70 in 9.50 in (1916)
Month to date snowfall 26.8 19.2  
Since 1 July snowfall 51.9 76.6  
Snow Depth T in    
Sea Level Pressure  
Sea Level Pressure 29.65 in    
Wind  
Wind Speed 18 mph (WNW)    
Max Wind Speed 39 mph    
Max Gust Speed 51 mph    
Visibility 4 miles    
Events Fog , Snow    
T = Trace of Precipitation, MM = Missing Value Source: NWS Daily Summary

Daily Weather History Graph

Daily Weather History Graph

Search for Another Location

Airport or City:

Trip Planner

Search our weather history database for the weather conditions in past years. The results will help you decide how hot, cold, wet, or windy it might be!

Date:

Astronomy

Feb. 25, 2012 Rise Set
Actual Time 6:54 AM EST 5:54 PM EST
Civil Twilight 6:25 AM EST 6:22 PM EST
Nautical Twilight 5:52 AM EST 6:55 PM EST
Astronomical Twilight 5:19 AM EST 7:28 PM EST
Moon 8:09 AM EST (2/25) 10:01 PM EST (2/25)
Length of Visible Light 11h 57m
Length of Day
11h 00m
Waxing Crescent, 13% of the Moon is Illuminated
Feb 25
Waxing Crescent
Feb 29
First Quarter
Mar 8
Full
Mar 14
Last Quarter
Mar 22
New

Hourly Weather History & Observations

Time (EST) Temp. Windchill Dew Point Humidity Pressure Visibility Wind Dir Wind Speed Gust Speed Precip Events Conditions
12:54 AM 34.0 °F 20.5 °F 26.1 °F 73% 29.38 in 7.0 mi West 28.8 mph 42.6 mph 0.00 in Snow Light Snow
1:44 AM 33.8 °F 20.8 °F 26.6 °F 75% 29.38 in 6.0 mi West 26.5 mph 42.6 mph 0.00 in Snow Light Snow
1:54 AM 33.1 °F 19.8 °F 26.1 °F 75% 29.39 in 6.0 mi West 26.5 mph 40.3 mph 0.00 in Snow Light Snow
2:06 AM 33.8 °F 19.4 °F 26.6 °F 75% 29.39 in 7.0 mi West 33.4 mph 47.2 mph 0.00 in Snow Light Snow
2:46 AM 33.8 °F 22.2 °F 26.6 °F 75% 29.41 in 9.0 mi West 20.7 mph 33.4 mph 0.00 in Snow Light Snow
2:54 AM 33.1 °F 20.6 °F 25.0 °F 72% 29.43 in 9.0 mi West 23.0 mph 41.4 mph 0.00 in Snow Light Snow
3:54 AM 32.0 °F 18.9 °F 25.0 °F 75% 29.45 in 9.0 mi West 24.2 mph 35.7 mph 0.00 in Snow Light Snow
4:54 AM 32.0 °F 20.8 °F 25.0 °F 75% 29.48 in 9.0 mi West 17.3 mph 32.2 mph 0.00 in Snow Light Snow
5:46 AM 32.0 °F 19.8 °F 26.6 °F 80% 29.48 in 2.0 mi West 20.7 mph 34.5 mph 0.00 in Snow Light Snow
5:54 AM 32.0 °F 21.2 °F 26.1 °F 79% 29.50 in 2.5 mi West 16.1 mph 28.8 mph 0.00 in Snow Light Snow
6:02 AM 32.0 °F 20.5 °F 26.6 °F 80% 29.49 in 3.0 mi West 18.4 mph 27.6 mph 0.00 in Snow Light Snow
6:21 AM - - - N/A% - - North - - N/A   Unknown
6:29 AM 30.2 °F 18.1 °F 26.6 °F 86% 29.50 in 3.0 mi West 18.4 mph 21.9 mph 0.00 in Snow Light Snow
6:38 AM 30.2 °F 17.1 °F 26.6 °F 86% 29.50 in 2.5 mi West 21.9 mph 26.5 mph 0.00 in Snow Light Snow
6:54 AM 30.9 °F 18.7 °F 26.1 °F 82% 29.53 in 2.0 mi West 19.6 mph 26.5 mph 0.00 in Snow Light Snow
7:01 AM 30.2 °F 20.2 °F 26.6 °F 86% 29.51 in 1.0 mi West 12.7 mph 26.5 mph 0.01 in Snow Light Snow
7:17 AM 30.2 °F 19.3 °F 26.6 °F 86% 29.52 in 0.8 mi West 15.0 mph 20.7 mph 0.01 in Fog , Snow Light Snow
7:26 AM 30.2 °F 20.2 °F 26.6 °F 86% 29.53 in 0.5 mi West 12.7 mph - 0.01 in Fog , Snow Snow
7:35 AM 30.2 °F 20.8 °F 28.4 °F 93% 29.53 in 0.2 mi West 11.5 mph - 0.02 in Fog , Snow Heavy Snow
7:54 AM 30.0 °F 20.0 °F 28.0 °F 92% 29.55 in 0.2 mi WNW 12.7 mph 20.7 mph 0.04 in Fog , Snow Snow
8:24 AM 30.2 °F 19.3 °F 28.4 °F 93% 29.55 in 0.2 mi WNW 15.0 mph - 0.02 in Fog , Snow Heavy Snow
8:54 AM 30.0 °F 18.3 °F 28.0 °F 92% 29.58 in 0.8 mi West 17.3 mph 23.0 mph 0.07 in Snow Light Snow
9:03 AM 30.2 °F 19.3 °F 26.6 °F 86% 29.56 in 1.0 mi West 15.0 mph 27.6 mph 0.00 in Snow Light Snow
9:15 AM 30.2 °F 18.9 °F 26.6 °F 86% 29.57 in 1.0 mi West 16.1 mph 25.3 mph 0.00 in Snow Light Snow
9:27 AM 30.2 °F 18.1 °F 26.6 °F 86% 29.57 in 3.0 mi WNW 18.4 mph 24.2 mph 0.00 in Snow Light Snow
9:45 AM 30.2 °F 18.1 °F 24.8 °F 80% 29.57 in 2.0 mi West 18.4 mph 36.8 mph 0.00 in Snow Light Snow
9:50 AM 30.2 °F 17.8 °F 24.8 °F 80% 29.57 in 1.0 mi West 19.6 mph 27.6 mph 0.00 in Snow Light Snow
9:54 AM 30.0 °F 17.2 °F 25.0 °F 82% 29.60 in 1.0 mi WNW 20.7 mph 29.9 mph 0.00 in Snow Light Snow
10:09 AM 30.2 °F 18.1 °F 24.8 °F 80% 29.58 in 0.8 mi WNW 18.4 mph 26.5 mph 0.00 in Snow Light Snow
10:46 AM 28.4 °F 14.4 °F 23.0 °F 80% 29.61 in 1.0 mi WNW 23.0 mph 36.8 mph 0.00 in Snow Light Snow
10:54 AM 28.9 °F 16.1 °F 23.0 °F 78% 29.64 in 1.0 mi WNW 19.6 mph 31.1 mph 0.00 in Snow Light Snow
10:57 AM 28.4 °F 16.6 °F 23.0 °F 80% 29.62 in 2.0 mi WNW 16.1 mph 29.9 mph 0.00 in Snow Light Snow
11:27 AM 28.4 °F 15.8 °F 23.0 °F 80% 29.64 in 1.2 mi WNW 18.4 mph 29.9 mph 0.00 in Snow Light Snow
11:54 AM 28.9 °F 14.8 °F 21.9 °F 75% 29.68 in 2.0 mi WNW 24.2 mph 33.4 mph 0.00 in Snow Light Snow
12:16 PM 28.4 °F 14.4 °F 23.0 °F 80% 29.67 in 0.8 mi WNW 23.0 mph 31.1 mph 0.00 in Snow Light Snow
12:36 PM 28.4 °F 16.6 °F 23.0 °F 80% 29.68 in 1.2 mi WNW 16.1 mph 28.8 mph 0.00 in Snow Light Snow
12:54 PM 28.9 °F 16.5 °F 24.1 °F 82% 29.70 in 1.2 mi West 18.4 mph 27.6 mph 0.00 in Snow Light Snow
1:05 PM 28.4 °F 15.8 °F 23.0 °F 80% 29.68 in 0.8 mi WNW 18.4 mph 26.5 mph 0.00 in Snow Light Snow
1:42 PM 28.4 °F 16.6 °F 23.0 °F 80% 29.70 in 1.2 mi West 16.1 mph 29.9 mph 0.00 in Snow Light Snow
1:54 PM 28.0 °F 14.6 °F 21.9 °F 78% 29.73 in 1.5 mi WNW 20.7 mph 33.4 mph 0.00 in Snow Light Snow
2:54 PM 28.0 °F 14.9 °F 21.9 °F 78% 29.78 in 1.0 mi WNW 19.6 mph 33.4 mph 0.00 in Snow Light Snow
3:47 PM 28.4 °F 14.1 °F 21.2 °F 74% 29.80 in 4.0 mi WNW 24.2 mph 35.7 mph 0.00 in   Overcast
3:54 PM 28.0 °F 15.7 °F 19.0 °F 69% 29.83 in 4.0 mi WNW 17.3 mph 35.7 mph 0.00 in   Overcast
4:08 PM 28.4 °F 16.6 °F 17.6 °F 64% 29.82 in 9.0 mi WNW 16.1 mph 32.2 mph N/A   Overcast
4:54 PM 30.0 °F 17.9 °F 12.9 °F 49% 29.87 in 10.0 mi WNW 18.4 mph 28.8 mph N/A   Mostly Cloudy
5:54 PM 28.9 °F 17.7 °F 10.0 °F 45% 29.93 in 10.0 mi West 15.0 mph 25.3 mph N/A   Scattered Clouds
6:54 PM 28.0 °F 14.3 °F 10.9 °F 49% 29.99 in 10.0 mi WNW 21.9 mph 31.1 mph N/A   Scattered Clouds
7:54 PM 27.0 °F 14.7 °F 12.9 °F 56% 30.04 in 10.0 mi West 16.1 mph 26.5 mph N/A   Partly Cloudy
8:54 PM 27.0 °F 15.2 °F 12.9 °F 56% 30.10 in 10.0 mi WNW 15.0 mph 23.0 mph N/A   Scattered Clouds
9:54 PM 26.1 °F 16.2 °F 12.9 °F 58% 30.15 in 10.0 mi WNW 10.4 mph - N/A   Mostly Cloudy
10:54 PM 25.0 °F 15.5 °F 14.0 °F 63% 30.18 in 10.0 mi WNW 9.2 mph 18.4 mph N/A   Mostly Cloudy
11:54 PM 26.1 °F 16.2 °F 15.1 °F 63% 30.20 in 10.0 mi West 10.4 mph - N/A   Mostly Cloudy